{"data":{"norad_id":52276,"epoch":"2026-05-25T02:41:59.263872Z","epoch_age_seconds":72104,"freshness":"FRESH","line1":"1 52276U 22041R   26145.11249148 -.00003742  00000+0 -21708-3 0  9997","line2":"2 52276  53.2143 126.0432 0001155  79.1255 280.9867 15.08854407225901","mean_motion":15.08854407,"eccentricity":0.0001155,"inclination_deg":53.2143,"raan_deg":126.0432,"arg_perigee_deg":79.1255,"mean_anomaly_deg":280.9867,"bstar":-0.00021708,"rev_number":22590,"period_min":95.436643411017,"perigee_km":538.90034278035,"apogee_km":540.49836297786,"semimajor_km":6917.8363528791,"source":"CELESTRAK","updated_at":"2026-05-25T13:38:17.083153Z"}}